Location: The Saddle
(36.8333°N, 80.3417°W)
Time: 03:36:51
(UTC-05:00)

A-11 Canister half - Pass Details

Date: 19 December 2023
Orbit: 1525 x 1682 km, 47.3° (Epoch: 12 November)

Event Time Altitude Azimuth Distance (km) Brightness Sun altitude
Rises 13:55:23 0° 210° (SSW) 4,810 13.0 25.6°
Reaches altitude 10° 13:58:35 10° 205° (SSW) 3,847 13.1 25.3°
Maximum altitude 14:07:56 50° 134° (SE) 2,038 10.2 24.5°
Drops below altitude 10° 14:17:31 10° 63° (ENE) 3,943 10.8 23.5°
Sets 14:20:49 0° 59° (ENE) 4,938 11.2 23.2°
